TIME,DELAY(SENSOR),PRES,OXYGEN,RAWTEMP,T(OPTODE),TCPHASE,FLUOR,BETA(BETA700),BETA(BETA412),BETA(BETA440),CDOM,C(CSC),ED(ED412.20),ED(ED444.00),ED(ED489.60),ED(ED554.30),LU(LU412.10),LU(LU443.90),LU(LU489.70),LU(LU554.70),COMP,TILTX,TILTY,CHECK
1341631165,5808,884.0599975585938000,36.4598007202148440,561.4348144531250000,4.4414200782775880,56.0636100769043000,55,101,100,79,83,15568,0,0,0,0,2147119744,2147776100,2147564324,2147574692,3593,3,13,35626
1341634761,5810,968.5300292968750000,43.2385787963867200,568.7943115234375000,4.2130222320556640,55.1256904602050800,55,98,101,78,83,15566,0,0,0,0,2147120173,2147776118,2147570130,2147571812,1099,3,13,2098
1341638361,5810,983.6599731445312000,44.2783012390136700,570.7327880859375000,4.1527838706970215,55.0005493164062500,55,100,102,78,83,15564,0,0,0,0,2147124580,2147771062,2147571666,2147575021,3413,3,13,13137
1341641961,5809,989.5900268554688000,43.5472984313964840,570.0855102539062000,4.1729030609130860,55.0964584350585940,55,100,102,78,83,15562,0,0,0,0,2147122523,2147773696,2147576850,2147574921,422,3,13,61774
1341645561,5810,997.0000000000000000,43.8968505859375000,570.7268066406250000,4.1529731750488280,55.0549697875976560,55,99,100,78,82,15563,0,0,0,0,2147119076,2147774500,2147572571,2147573824,3420,3,13,14513
1341649161,5808,1000.7299804687500000,43.5820617675781250,570.7130737304688000,4.1533989906311035,55.0955200195312500,55,100,102,79,83,15563,0,0,0,0,2147121417,2147774363,2147571958,2147573467,3396,3,13,34941
1341652761,5807,1001.5399780273438000,42.9135398864746100,569.9014892578125000,4.1786208152771000,55.1826591491699200,55,100,101,78,83,15554,0,0,0,0,2147122386,2147771419,2147569526,2147570496,395,3,13,7080
1341656361,5809,999.3099975585938000,43.3674201965332000,570.7280273437500000,4.1529350280761720,55.1317100524902340,54,100,100,78,84,15561,0,0,0,0,2147122313,2147774390,2147570550,2147574454,400,3,13,32314
1341659961,5813,1006.4099731445312000,43.1403617858886700,570.6790161132812000,4.1544609069824220,55.1623992919921900,55,103,102,77,82,15558,0,0,0,0,2147124946,2147772608,2147573558,2147568557,3306,3,13,76
1341663561,5810,1008.5900268554688000,43.4229202270507800,570.8026733398438000,4.1506161689758300,55.1204185485839840,55,98,101,78,84,15558,0,0,0,0,2147124790,2147772690,2147570880,2147569517,3450,3,13,10727
1341667161,5810,1003.4099731445312000,42.8199806213378900,572.1348266601562000,4.1092028617858890,55.2248191833496100,55,101,101,78,82,15560,0,0,0,0,2147119972,2147777033,2147572973,2147570468,273,3,13,58750
1341670761,5811,1002.5800170898438000,42.5041389465332000,572.7130737304688000,4.0912170410156250,55.2735900878906250,54,97,102,78,84,15560,0,0,0,0,2147121069,2147773101,2147572534,2147572205,37,3,13,19992
1341674361,5810,1004.2999877929688000,42.3165893554687500,573.1276245117188000,4.0783290863037110,55.3049316406250000,56,99,101,77,84,15559,0,0,0,0,2147120018,2147773193,2147570550,2147567945,133,3,13,39481
1341677961,5809,1005.5399780273438000,42.3151702880859400,573.1254272460938000,4.0783939361572270,55.3104896545410160,55,99,101,78,83,15561,0,0,0,0,2147121636,2147782016,2147575296,2147570148,404,3,13,9712
1341681561,5812,997.8599853515625000,42.3400802612304700,573.2169189453125000,4.0755519866943360,55.3043403625488300,55,99,101,79,84,15561,0,0,0,0,2147120566,2147776146,2147570825,2147569618,3484,3,13,52692
1341685161,5809,1009.7500000000000000,42.5169105529785160,572.3906250000000000,4.1012501716613770,55.2698402404785160,55,99,103,78,84,15558,0,0,0,0,2147120018,2147772973,2147570240,2147569417,249,3,13,64049
1341688761,5809,1018.5999755859375000,43.1640892028808600,570.5222167968750000,4.1593341827392580,55.1579399108886700,55,99,102,78,82,15559,0,0,0,0,2147124571,2147771940,2147570377,2147570797,458,3,13,49335
1341692361,5809,1017.2800292968750000,41.8722686767578100,570.1383056640625000,4.1712632179260250,55.3373794555664060,54,98,102,79,83,15556,0,0,0,0,2147125211,2147768246,2147571684,2147571510,287,3,13,59921
1341695961,5810,1021.7600097656250000,41.9851303100585940,569.9406127929688000,4.1774082183837890,55.3222618103027340,56,100,101,78,83,15556,0,0,0,0,2147123968,2147779913,2147569316,2147572324,262,3,13,41700
1341699561,5809,1019.8099975585938000,42.4382896423339840,569.9738769531250000,4.1763730049133300,55.2542495727539060,55,98,102,79,83,15556,0,0,0,0,2147122724,2147770633,2147572690,2147569929,2935,3,13,29633
1341703161,5810,1014.3800048828125000,41.5365905761718750,570.5106201171875000,4.1596951484680180,55.3922996520996100,55,100,102,77,83,15553,0,0,0,0,2147121984,2147772214,2147570614,2147571995,127,3,13,12627
1341706761,5810,1014.8400268554688000,42.0430412292480500,570.8516845703125000,4.1490898132324220,55.3213005065918000,55,99,101,78,83,15551,0,0,0,0,2147122505,2147774646,2147572882,2147570633,126,3,13,26040
1341710361,5808,1004.4500122070312000,42.4838600158691400,572.4611206054688000,4.0990557670593260,55.2737617492675800,55,101,102,79,83,15555,0,0,0,0,2147120393,2147774912,2147570761,2147569956,3214,3,13,31000
1341713961,5812,1010.9799804687500000,42.3908882141113300,573.1743774414062000,4.0768718719482420,55.2943382263183600,54,98,102,77,83,15553,0,0,0,0,2147120950,2147773504,2147573860,2147571858,11,3,13,11810
1341717561,5810,1011.0900268554688000,42.3767318725585940,572.4965820312500000,4.0979518890380860,55.2950706481933600,55,98,101,79,83,15551,0,0,0,0,2147126473,2147772361,2147570486,2147569462,3537,3,13,37864
1341721161,5810,1019.5599975585938000,43.0268707275390600,571.0974121093750000,4.1414527893066410,55.1848793029785160,55,99,101,79,83,15549,0,0,0,0,2147123428,2147775140,2147568274,2147570505,3441,3,13,60519
1341724761,5810,1012.2299804687500000,41.9466705322265600,571.8646850585938000,4.1175990104675290,55.3515014648437500,54,102,100,79,84,15551,0,0,0,0,2147124672,2147776676,2147573266,2147571236,40,3,13,7373
1341728361,5810,1012.7100219726562000,41.9175415039062500,572.3477783203125000,4.1025791168212890,55.3587608337402340,54,100,101,80,83,15549,0,0,0,0,2147119542,2147776301,2147571044,2147572507,3512,3,13,51071
1341731961,5809,1014.4899902343750000,42.7060890197753900,572.3383178710938000,4.1028728485107420,55.2407493591308600,55,98,101,78,83,15547,0,0,0,0,2147121444,2147774912,2147571382,2147569956,68,3,13,60153
1341735561,5808,1015.1799926757812000,43.0517387390136700,572.4868164062500000,4.0982570648193360,55.1912193298339840,55,99,101,77,83,15547,0,0,0,0,2147120018,2147773385,2147569051,2147568530,137,3,13,53687
1341739161,5811,1012.4799804687500000,42.4480895996093750,571.9058837890625000,4.1163201332092285,55.2730789184570300,55,101,101,78,82,15545,0,0,0,0,2147122596,2147771977,2147572818,2147571373,75,3,13,56452
1341742761,5808,1011.8200073242188000,42.4719505310058600,573.4025878906250000,4.0697731971740720,55.2895812988281250,55,98,101,78,82,15552,0,0,0,0,2147122185,2147772781,2147572717,2147571236,258,3,13,60634
1341746361,5811,1019.7600097656250000,42.8728408813476560,572.6049804687500000,4.0945801734924320,55.2231292724609400,54,99,101,79,83,15541,0,0,0,0,2147120484,2147776667,2147570230,2147570816,3413,3,13,30764
1341749961,5810,1019.4099731445312000,42.1774215698242200,572.4600219726562000,4.0990891456604000,55.3218994140625000,54,98,101,78,85,15543,0,0,0,0,2147122413,2147772141,2147569901,2147572425,438,3,13,25826
1341753561,5809,1017.7899780273438000,41.2707214355468750,572.2745971679688000,4.1048550605773930,55.4479103088378900,55,99,101,78,84,15542,0,0,0,0,2147122404,2147774994,2147572818,2147571904,152,3,13,12601
1341757161,5811,1017.2600097656250000,42.1318092346191400,572.2847290039062000,4.1045398712158200,55.3270797729492200,55,100,101,78,84,15543,0,0,0,0,2147121636,2147778395,2147567570,2147572160,322,3,13,43729
1341760761,5810,1019.6199951171875000,42.8865318298339840,572.4179077148438000,4.1003990173339840,55.2140388488769500,56,98,101,78,83,15541,0,0,0,0,2147121051,2147775926,2147574299,2147570477,60,3,13,14037
1341764361,5810,1014.5200195312500000,42.4739418029785160,573.2661132812500000,4.0740199089050290,55.2838592529296900,56,98,100,77,83,15538,0,0,0,0,2147120768,2147778560,2147569846,2147574308,216,3,13,50121
1341767961,5811,1016.1500244140625000,42.1841812133789060,572.4244995117188000,4.1001930236816410,55.3184318542480500,55,100,102,78,83,15540,0,0,0,0,2147124224,2147778852,2147574372,2147571931,28,3,13,21882
1341771561,5810,1020.1900024414062000,42.1821098327636700,572.2570190429688000,4.1054019927978520,55.3165206909179700,55,99,102,78,83,15539,0,0,0,0,2147124096,2147775286,2147573202,2147568448,39,3,13,42700
1341775161,5810,1021.5100097656250000,42.4093704223632800,572.1561889648438000,4.1085357666015625,55.2857894897460940,55,99,102,78,83,15535,0,0,0,0,2147122422,2147780754,2147572077,2147568091,12,3,13,7926
1341775555,5810,1022.7399902343750000,42.5474891662597660,571.9564208984375000,4.1147499084472660,55.2604408264160160,54,99,101,77,83,15539,0,0,0,0,2147123017,2147776868,2147572800,2147570697,3418,3,13,49698
